^^
Datos históricos de la estación: Murcia-Puente Tocinos
Diario Informe para Enero 8, 2019 Unidades:  Métrico    Inglés   Ambas
Diario Semanal Mensual Anual Configurable
  Máximo: Mínimo: Media:
Temperatura: 16.2 °C 5.7 °C 10.2 °C
Punto de rocio: 6.7 °C 0.3 °C 4.1 °C
Humedad: 81% 43% 67%
Velocidad viento: 11.3km/h 0.0km/h 6.5km/h
Racha viento: 19.3km/h - -
Viento- - SSW
Presión: 1029.8 hPa 1021.6 hPa -
Precipitación: 0.0 mm    
Historical Graphs
 
 
Tabla de datos para Enero 8, 2019
Hora Temperatura Punto de rocio Presión Viento Velocidad viento Racha viento Humedad Intensidad lluvia(por hora) Nubes
00:00 9.2 °C 6.1 °C 1028.3 hPa SSW 4.8 km/h 6.4 km/h 81% 0.0 mm SCT
00:05 9.1 °C 6.0 °C 1028.3 hPa South 5.0 km/h 7.4 km/h 81% 0.0 mm SCT
00:10 9.0 °C 5.9 °C 1028.3 hPa South 4.7 km/h 9.3 km/h 81% 0.0 mm SCT
00:15 8.9 °C 5.8 °C 1028.3 hPa South 4.7 km/h 9.3 km/h 81% 0.0 mm SCT
00:19 8.9 °C 5.8 °C 1028.2 hPa SSW 6.9 km/h 11.1 km/h 81% 0.0 mm OVC
00:25 8.9 °C 5.8 °C 1028.2 hPa SSW 6.9 km/h 9.3 km/h 81% 0.0 mm OVC
00:30 8.9 °C 5.8 °C 1028.2 hPa South 6.9 km/h 7.4 km/h 81% 0.0 mm OVC
00:35 8.9 °C 5.8 °C 1028.2 hPa South 6.9 km/h 7.4 km/h 81% 0.0 mm OVC
00:39 8.9 °C 5.8 °C 1028.2 hPa SSW 5.0 km/h 7.6 km/h 81% 0.0 mm OVC
00:45 8.9 °C 5.8 °C 1028.2 hPa SSW 5.0 km/h 7.4 km/h 81% 0.0 mm OVC
00:49 8.9 °C 5.8 °C 1028.3 hPa SSE 5.0 km/h 7.4 km/h 81% 0.0 mm FEW
00:55 8.9 °C 5.8 °C 1028.3 hPa SE 5.0 km/h 7.4 km/h 81% 0.0 mm FEW
01:00 8.8 °C 5.7 °C 1028.3 hPa SSE 3.2 km/h 8.0 km/h 81% 0.0 mm FEW
01:05 8.8 °C 5.7 °C 1028.3 hPa SSE 3.2 km/h 8.0 km/h 81% 0.0 mm FEW
01:09 8.8 °C 5.7 °C 1028.3 hPa SSW 5.0 km/h 9.5 km/h 81% 0.0 mm FEW
01:15 8.8 °C 5.7 °C 1028.3 hPa SSW 5.0 km/h 7.4 km/h 81% 0.0 mm FEW
01:20 8.8 °C 5.7 °C 1028.2 hPa SSW 6.4 km/h 11.1 km/h 81% 0.0 mm SCT
01:24 8.8 °C 5.7 °C 1028.2 hPa SW 6.4 km/h 11.1 km/h 81% 0.0 mm SCT
01:30 8.8 °C 5.7 °C 1028.2 hPa SSW 6.9 km/h 11.1 km/h 81% 0.0 mm SCT
01:35 8.8 °C 5.6 °C 1028.2 hPa SSW 8.0 km/h 11.3 km/h 80% 0.0 mm SCT
01:39 8.8 °C 5.6 °C 1028.2 hPa SW 6.9 km/h 9.3 km/h 80% 0.0 mm SCT
01:44 8.7 °C 5.4 °C 1028.2 hPa SSW 6.9 km/h 11.1 km/h 80% 0.0 mm SCT
01:49 8.7 °C 5.4 °C 1028.2 hPa South 6.4 km/h 9.3 km/h 80% 0.0 mm SCT
01:55 8.7 °C 5.4 °C 1028.2 hPa SSW 8.0 km/h 9.7 km/h 80% 0.0 mm SCT
01:59 8.6 °C 5.3 °C 1028.2 hPa SSW 6.9 km/h 9.3 km/h 80% 0.0 mm SCT
02:05 8.6 °C 5.3 °C 1028.2 hPa SSW 6.9 km/h 11.1 km/h 80% 0.0 mm SCT
02:10 8.5 °C 5.2 °C 1028.2 hPa SW 8.4 km/h 11.1 km/h 80% 0.0 mm SCT
02:15 8.6 °C 5.3 °C 1028.2 hPa SSW 8.4 km/h 11.1 km/h 80% 0.0 mm SCT
02:19 8.7 °C 5.4 °C 1028.4 hPa SW 7.6 km/h 11.9 km/h 80% 0.0 mm FEW
02:25 8.7 °C 5.3 °C 1028.4 hPa SSW 7.6 km/h 10.0 km/h 79% 0.0 mm FEW
02:30 8.7 °C 5.3 °C 1028.4 hPa WSW 7.6 km/h 7.4 km/h 79% 0.0 mm FEW
02:35 8.8 °C 5.3 °C 1028.6 hPa SW 8.0 km/h 12.9 km/h 79% 0.0 mm FEW
02:39 8.8 °C 5.2 °C 1028.6 hPa SW 7.6 km/h 11.1 km/h 78% 0.0 mm FEW
02:45 8.8 °C 5.2 °C 1028.6 hPa SSW 7.6 km/h 13.0 km/h 78% 0.0 mm FEW
02:50 8.8 °C 5.2 °C 1028.8 hPa SW 8.4 km/h 9.3 km/h 78% 0.0 mm CLR
02:55 8.7 °C 5.1 °C 1028.8 hPa SW 8.0 km/h 11.3 km/h 78% 0.0 mm CLR
03:00 8.7 °C 5.1 °C 1028.8 hPa SW 8.0 km/h 9.7 km/h 78% 0.0 mm CLR
03:05 8.7 °C 5.1 °C 1028.9 hPa SW 6.4 km/h 7.4 km/h 78% 0.0 mm CLR
03:09 8.6 °C 5.0 °C 1028.9 hPa SW 6.9 km/h 7.4 km/h 78% 0.0 mm CLR
03:15 8.6 °C 5.1 °C 1028.9 hPa SW 8.0 km/h 9.7 km/h 79% 0.0 mm CLR
03:19 8.5 °C 5.1 °C 1028.9 hPa SSW 5.8 km/h 11.1 km/h 79% 0.0 mm FEW
03:25 8.4 °C 4.9 °C 1028.9 hPa SW 5.8 km/h 7.4 km/h 79% 0.0 mm FEW
03:29 8.4 °C 4.9 °C 1028.9 hPa SSW 6.4 km/h 8.4 km/h 79% 0.0 mm FEW
03:35 8.3 °C 4.9 °C 1028.9 hPa SSW 8.0 km/h 9.7 km/h 79% 0.0 mm FEW
03:40 8.2 °C 4.8 °C 1028.9 hPa SSW 5.8 km/h 9.3 km/h 79% 0.0 mm FEW
03:45 8.1 °C 4.8 °C 1028.9 hPa SW 5.8 km/h 8.4 km/h 80% 0.0 mm FEW
03:50 7.9 °C 4.8 °C 1028.9 hPa SSW 4.8 km/h 9.7 km/h 81% 0.0 mm BKN
03:55 7.9 °C 4.7 °C 1028.9 hPa SSW 5.8 km/h 9.3 km/h 80% 0.0 mm BKN
04:00 7.9 °C 4.5 °C 1028.9 hPa SSW 4.8 km/h 11.3 km/h 79% 0.0 mm BKN
04:05 7.9 °C 4.5 °C 1028.9 hPa SSW 5.8 km/h 14.8 km/h 79% 0.0 mm BKN
04:09 7.9 °C 4.1 °C 1028.9 hPa SSW 8.7 km/h 16.7 km/h 77% 0.0 mm BKN
04:15 7.9 °C 3.9 °C 1028.9 hPa SSW 9.7 km/h 16.1 km/h 76% 0.0 mm BKN
04:19 7.8 °C 3.8 °C 1028.8 hPa South 10.3 km/h 13.0 km/h 76% 0.0 mm FEW
04:25 7.8 °C 3.8 °C 1028.8 hPa SSW 11.3 km/h 12.9 km/h 76% 0.0 mm FEW
04:30 7.8 °C 3.8 °C 1028.8 hPa SSW 8.4 km/h 11.9 km/h 76% 0.0 mm FEW
04:35 7.7 °C 3.7 °C 1028.9 hPa SSW 8.0 km/h 16.1 km/h 76% 0.0 mm FEW
04:39 7.7 °C 3.9 °C 1028.9 hPa SSW 10.0 km/h 14.8 km/h 77% 0.0 mm FEW
04:45 7.7 °C 3.7 °C 1028.9 hPa SSW 10.0 km/h 13.0 km/h 76% 0.0 mm FEW
04:49 7.6 °C 3.4 °C 1028.8 hPa SW 9.5 km/h 13.0 km/h 75% 0.0 mm FEW
04:55 7.6 °C 3.4 °C 1028.8 hPa SW 9.5 km/h 11.1 km/h 75% 0.0 mm FEW
05:00 7.6 °C 3.4 °C 1028.8 hPa SW 9.7 km/h 11.3 km/h 75% 0.0 mm FEW
05:05 7.6 °C 3.4 °C 1028.9 hPa SSW 9.5 km/h 9.3 km/h 75% 0.0 mm FEW
05:10 7.5 °C 3.3 °C 1028.9 hPa SSW 8.0 km/h 9.7 km/h 75% 0.0 mm FEW
05:15 7.4 °C 3.1 °C 1028.9 hPa SW 8.0 km/h 9.7 km/h 74% 0.0 mm FEW
05:19 7.4 °C 2.9 °C 1028.9 hPa West 6.4 km/h 10.3 km/h 73% 0.0 mm FEW
05:25 7.4 °C 2.9 °C 1028.9 hPa WSW 8.0 km/h 11.3 km/h 73% 0.0 mm FEW
05:30 7.3 °C 2.8 °C 1028.9 hPa West 5.8 km/h 9.3 km/h 73% 0.0 mm FEW
05:35 7.3 °C 2.8 °C 1028.8 hPa WSW 5.8 km/h 11.1 km/h 73% 0.0 mm FEW
05:40 7.3 °C 2.8 °C 1028.8 hPa WSW 8.0 km/h 14.5 km/h 73% 0.0 mm FEW
05:45 7.3 °C 2.6 °C 1028.8 hPa WSW 8.0 km/h 12.9 km/h 72% 0.0 mm FEW
05:50 7.3 °C 2.6 °C 1028.8 hPa WSW 8.0 km/h 11.3 km/h 72% 0.0 mm CLR
05:55 7.3 °C 2.6 °C 1028.8 hPa SW 8.0 km/h 9.7 km/h 72% 0.0 mm CLR
06:00 7.3 °C 2.6 °C 1028.8 hPa WSW 8.0 km/h 11.3 km/h 72% 0.0 mm CLR
06:05 7.3 °C 2.6 °C 1028.7 hPa SW 6.4 km/h 11.1 km/h 72% 0.0 mm CLR
06:09 7.3 °C 2.4 °C 1028.7 hPa WSW 8.4 km/h 9.3 km/h 71% 0.0 mm CLR
06:15 7.3 °C 2.4 °C 1028.7 hPa SW 8.0 km/h 9.7 km/h 71% 0.0 mm CLR
06:20 7.3 °C 2.6 °C 1028.8 hPa SW 6.4 km/h 10.0 km/h 72% 0.0 mm CLR
06:25 7.3 °C 2.9 °C 1028.8 hPa South 6.4 km/h 9.3 km/h 74% 0.0 mm CLR
06:29 7.1 °C 2.9 °C 1028.8 hPa South 6.4 km/h 7.4 km/h 75% 0.0 mm CLR
06:35 6.9 °C 2.9 °C 1028.8 hPa SSW 6.4 km/h 9.3 km/h 76% 0.0 mm CLR
06:39 6.8 °C 2.9 °C 1028.8 hPa SSW 6.9 km/h 13.0 km/h 76% 0.0 mm CLR
06:45 6.9 °C 2.4 °C 1028.8 hPa SW 6.9 km/h 11.1 km/h 73% 0.0 mm CLR
06:49 7.1 °C 2.2 °C 1028.9 hPa WSW 8.7 km/h 13.0 km/h 71% 0.0 mm CLR
06:55 7.2 °C 1.9 °C 1028.9 hPa SW 9.7 km/h 19.3 km/h 69% 0.0 mm CLR
07:00 7.2 °C 2.1 °C 1028.9 hPa SW 9.7 km/h 9.7 km/h 70% 0.0 mm CLR
07:05 7.1 °C 2.6 °C 1028.8 hPa SSW 9.5 km/h 9.3 km/h 73% 0.0 mm CLR
07:10 6.9 °C 2.6 °C 1028.8 hPa SSW 6.9 km/h 11.1 km/h 74% 0.0 mm CLR
07:15 6.7 °C 2.2 °C 1028.8 hPa SSW 8.0 km/h 11.3 km/h 73% 0.0 mm CLR
07:20 6.6 °C 2.1 °C 1028.8 hPa SSW 8.4 km/h 14.8 km/h 73% 0.0 mm CLR
07:25 6.6 °C 2.1 °C 1028.8 hPa SSW 8.0 km/h 14.5 km/h 73% 0.0 mm CLR
07:30 6.4 °C 2.1 °C 1028.8 hPa SSW 7.6 km/h 9.3 km/h 74% 0.0 mm CLR
07:35 6.4 °C 2.3 °C 1028.8 hPa SSW 8.0 km/h 11.3 km/h 75% 0.0 mm CLR
07:40 6.4 °C 2.3 °C 1028.8 hPa SW 7.6 km/h 11.1 km/h 75% 0.0 mm CLR
07:45 6.3 °C 2.0 °C 1028.8 hPa SW 7.6 km/h 11.1 km/h 74% 0.0 mm CLR
07:50 6.3 °C 1.8 °C 1028.8 hPa SSW 8.4 km/h 11.1 km/h 73% 0.0 mm CLR
07:55 6.3 °C 1.6 °C 1028.8 hPa SW 8.4 km/h 11.9 km/h 72% 0.0 mm CLR
08:00 6.3 °C 1.4 °C 1028.8 hPa SW 8.0 km/h 16.1 km/h 71% 0.0 mm CLR
08:05 6.2 °C 1.3 °C 1028.8 hPa SSW 8.4 km/h 9.3 km/h 71% 0.0 mm CLR
08:10 6.2 °C 1.1 °C 1028.8 hPa WSW 7.6 km/h 14.8 km/h 70% 0.0 mm CLR
08:15 6.2 °C 0.9 °C 1028.8 hPa West 7.6 km/h 13.0 km/h 69% 0.0 mm CLR
08:20 6.1 °C 0.6 °C 1028.8 hPa SW 9.5 km/h 9.3 km/h 68% 0.0 mm CLR
08:25 6.0 °C 0.7 °C 1028.8 hPa WSW 9.7 km/h 9.7 km/h 69% 0.0 mm CLR
08:30 6.0 °C 0.7 °C 1028.8 hPa WSW 6.4 km/h 9.3 km/h 69% 0.0 mm CLR
08:35 6.0 °C 0.7 °C 1028.9 hPa WSW 6.4 km/h 9.3 km/h 69% 0.0 mm CLR
08:40 5.9 °C 0.7 °C 1028.9 hPa WSW 6.4 km/h 7.4 km/h 69% 0.0 mm CLR
08:45 5.9 °C 0.7 °C 1028.9 hPa WSW 6.4 km/h 7.6 km/h 69% 0.0 mm CLR
08:49 5.8 °C 0.6 °C 1029.0 hPa WSW 5.8 km/h 11.1 km/h 69% 0.0 mm FEW
08:55 5.8 °C 0.6 °C 1029.0 hPa WSW 4.8 km/h 11.3 km/h 69% 0.0 mm FEW
09:00 5.7 °C 0.4 °C 1029.0 hPa WSW 8.0 km/h 9.7 km/h 69% 0.0 mm FEW
09:05 5.8 °C 0.6 °C 1029.2 hPa SSW 6.4 km/h 7.4 km/h 69% 0.0 mm FEW
09:10 5.7 °C 0.3 °C 1029.2 hPa SSW 4.8 km/h 9.7 km/h 68% 0.0 mm FEW
09:15 5.8 °C 0.3 °C 1029.2 hPa South 5.0 km/h 9.3 km/h 68% 0.0 mm FEW
09:20 5.9 °C 0.4 °C 1029.3 hPa SSW 4.8 km/h 9.7 km/h 68% 0.0 mm FEW
09:25 6.1 °C 0.6 °C 1029.3 hPa South 4.8 km/h 11.3 km/h 68% 0.0 mm FEW
09:30 6.3 °C 0.8 °C 1029.3 hPa SSW 6.4 km/h 9.3 km/h 68% 0.0 mm FEW
09:35 6.4 °C 0.5 °C 1029.5 hPa WSW 6.4 km/h 9.3 km/h 66% 0.0 mm FEW
09:40 6.5 °C 0.4 °C 1029.5 hPa SW 4.8 km/h 14.5 km/h 65% 0.0 mm FEW
09:45 6.6 °C 0.5 °C 1029.5 hPa SW 5.8 km/h 11.1 km/h 65% 0.0 mm FEW
09:50 6.6 °C 0.5 °C 1029.6 hPa WSW 8.0 km/h 9.7 km/h 65% 0.0 mm FEW
09:55 6.7 °C 0.4 °C 1029.6 hPa WSW 8.0 km/h 9.7 km/h 64% 0.0 mm FEW
10:00 6.8 °C 0.4 °C 1029.6 hPa WSW 8.0 km/h 9.7 km/h 64% 0.0 mm FEW
10:05 7.1 °C 0.7 °C 1029.8 hPa WSW 8.0 km/h 9.7 km/h 64% 0.0 mm FEW
10:09 7.3 °C 0.7 °C 1029.8 hPa SW 4.7 km/h 9.3 km/h 63% 0.0 mm FEW
10:15 7.4 °C 0.8 °C 1029.8 hPa SSW 4.7 km/h 7.4 km/h 63% 0.0 mm FEW
10:20 7.5 °C 0.7 °C 1029.7 hPa South 5.8 km/h 9.3 km/h 62% 0.0 mm FEW
10:25 7.6 °C 0.8 °C 1029.7 hPa SSW 4.8 km/h 9.7 km/h 62% 0.0 mm FEW
10:30 7.6 °C 1.0 °C 1029.7 hPa SSW 5.8 km/h 9.3 km/h 63% 0.0 mm FEW
10:35 7.7 °C 1.1 °C 1029.7 hPa SSW 4.8 km/h 9.7 km/h 63% 0.0 mm FEW
10:39 7.8 °C 1.2 °C 1029.7 hPa South 5.8 km/h 7.4 km/h 63% 0.0 mm FEW
10:45 7.9 °C 1.1 °C 1029.7 hPa SSW 4.8 km/h 8.0 km/h 62% 0.0 mm FEW
10:50 8.0 °C 1.2 °C 1029.7 hPa WSW 5.0 km/h 8.4 km/h 62% 0.0 mm FEW
10:55 8.2 °C 1.1 °C 1029.7 hPa WSW 5.0 km/h 11.1 km/h 61% 0.0 mm FEW
11:00 8.2 °C 1.2 °C 1029.7 hPa WSW 8.0 km/h 11.3 km/h 61% 0.0 mm FEW
11:05 8.4 °C 1.1 °C 1029.8 hPa WSW 6.4 km/h 7.4 km/h 60% 0.0 mm FEW
11:09 8.6 °C 1.3 °C 1029.8 hPa South 5.0 km/h 9.3 km/h 60% 0.0 mm FEW
11:15 8.8 °C 1.2 °C 1029.8 hPa WSW 4.8 km/h 11.3 km/h 59% 0.0 mm FEW
11:20 9.0 °C 1.4 °C 1029.6 hPa SSE 5.8 km/h 7.4 km/h 59% 0.0 mm FEW
11:25 9.3 °C 1.7 °C 1029.6 hPa SSW 5.8 km/h 7.4 km/h 59% 0.0 mm FEW
11:30 9.4 °C 1.6 °C 1029.6 hPa WSW 6.4 km/h 9.3 km/h 58% 0.0 mm FEW
11:35 9.6 °C 1.5 °C 1029.4 hPa SW 6.4 km/h 12.2 km/h 57% 0.0 mm FEW
11:39 9.6 °C 1.7 °C 1029.4 hPa SW 6.4 km/h 7.4 km/h 58% 0.0 mm FEW
11:45 9.8 °C 1.7 °C 1029.4 hPa WSW 6.4 km/h 9.3 km/h 57% 0.0 mm FEW
11:50 9.9 °C 1.5 °C 1029.1 hPa SW 8.0 km/h 12.9 km/h 56% 0.0 mm FEW
11:55 9.9 °C 1.8 °C 1029.1 hPa SW 6.4 km/h 9.3 km/h 57% 0.0 mm FEW
12:00 10.1 °C 2.0 °C 1029.1 hPa SW 8.0 km/h 8.0 km/h 57% 0.0 mm FEW
12:05 10.2 °C 1.8 °C 1028.8 hPa West 6.9 km/h 11.1 km/h 56% 0.0 mm FEW
12:09 10.3 °C 1.7 °C 1028.8 hPa West 6.4 km/h 7.4 km/h 55% 0.0 mm FEW
12:15 10.6 °C 1.9 °C 1028.8 hPa WSW 8.0 km/h 11.3 km/h 55% 0.0 mm FEW
12:19 10.8 °C 1.8 °C 1028.4 hPa West 4.7 km/h 9.3 km/h 54% 0.0 mm FEW
12:25 10.8 °C 1.8 °C 1028.4 hPa West 4.7 km/h 11.1 km/h 54% 0.0 mm FEW
12:30 10.8 °C 1.8 °C 1028.4 hPa SW 6.4 km/h 11.1 km/h 54% 0.0 mm FEW
12:35 10.9 °C 1.9 °C 1028.0 hPa West 6.4 km/h 11.1 km/h 54% 0.0 mm FEW
12:40 10.9 °C 1.9 °C 1028.0 hPa West 7.6 km/h 8.4 km/h 54% 0.0 mm FEW
12:45 11.1 °C 2.4 °C 1028.0 hPa SSE 7.6 km/h 7.4 km/h 55% 0.0 mm FEW
12:50 11.3 °C 2.6 °C 1027.6 hPa NW 5.0 km/h 9.3 km/h 55% 0.0 mm FEW
12:55 11.4 °C 2.7 °C 1027.6 hPa SSW 5.0 km/h 3.7 km/h 55% 0.0 mm FEW
13:00 11.6 °C 2.8 °C 1027.6 hPa SW 4.8 km/h 9.7 km/h 55% 0.0 mm FEW
13:05 11.8 °C 2.8 °C 1027.2 hPa West 5.8 km/h 8.7 km/h 54% 0.0 mm FEW
13:09 12.0 °C 2.9 °C 1027.2 hPa South 5.8 km/h 7.4 km/h 54% 0.0 mm FEW
13:15 12.2 °C 3.2 °C 1027.2 hPa SSW 5.8 km/h 7.4 km/h 54% 0.0 mm FEW
13:19 12.3 °C 3.2 °C 1026.8 hPa West 5.0 km/h 7.4 km/h 54% 0.0 mm FEW
13:25 12.4 °C 3.3 °C 1026.8 hPa West 5.0 km/h 5.6 km/h 54% 0.0 mm FEW
13:29 12.7 °C 3.3 °C 1026.8 hPa SW 3.9 km/h 9.3 km/h 53% 0.0 mm FEW
13:35 12.8 °C 3.4 °C 1026.6 hPa WSW 3.2 km/h 11.3 km/h 53% 0.0 mm FEW
13:40 12.9 °C 3.8 °C 1026.6 hPa West 4.8 km/h 9.7 km/h 54% 0.0 mm FEW
13:45 13.0 °C 3.6 °C 1026.6 hPa South 5.0 km/h 7.4 km/h 53% 0.0 mm FEW
13:50 13.2 °C 3.8 °C 1026.3 hPa ESE 5.0 km/h 7.4 km/h 53% 0.0 mm FEW
13:55 13.3 °C 3.7 °C 1026.3 hPa West 5.0 km/h 11.1 km/h 52% 0.0 mm FEW
14:00 13.4 °C 3.7 °C 1026.3 hPa WSW 4.8 km/h 9.7 km/h 52% 0.0 mm FEW
14:05 13.4 °C 4.0 °C 1026.0 hPa SW 5.0 km/h 11.1 km/h 53% 0.0 mm FEW
14:10 13.5 °C 4.1 °C 1026.0 hPa WSW 5.8 km/h 7.4 km/h 53% 0.0 mm FEW
14:15 13.6 °C 4.2 °C 1026.0 hPa SW 4.8 km/h 12.9 km/h 53% 0.0 mm FEW
14:20 13.8 °C 4.4 °C 1025.7 hPa SSW 6.9 km/h 11.1 km/h 53% 0.0 mm FEW
14:25 13.8 °C 4.4 °C 1025.7 hPa WNW 6.9 km/h 7.4 km/h 53% 0.0 mm FEW
14:30 13.9 °C 4.7 °C 1025.7 hPa WSW 8.0 km/h 9.7 km/h 54% 0.0 mm FEW
14:35 14.2 °C 5.3 °C 1025.5 hPa SSW 6.9 km/h 14.8 km/h 55% 0.0 mm FEW
14:40 14.1 °C 5.4 °C 1025.5 hPa South 6.9 km/h 9.3 km/h 56% 0.0 mm FEW
14:45 14.3 °C 5.4 °C 1025.5 hPa South 6.9 km/h 9.3 km/h 55% 0.0 mm FEW
14:50 14.3 °C 5.1 °C 1025.1 hPa SSW 7.6 km/h 16.7 km/h 54% 0.0 mm FEW
14:55 14.3 °C 5.1 °C 1025.1 hPa South 8.0 km/h 16.1 km/h 54% 0.0 mm FEW
15:00 14.4 °C 5.2 °C 1025.1 hPa SSW 9.7 km/h 11.3 km/h 54% 0.0 mm FEW
15:05 14.6 °C 5.1 °C 1025.1 hPa South 10.0 km/h 9.3 km/h 53% 0.0 mm FEW
15:10 14.6 °C 5.1 °C 1025.1 hPa SSW 6.9 km/h 9.3 km/h 53% 0.0 mm FEW
15:15 14.8 °C 5.3 °C 1025.1 hPa South 6.9 km/h 13.0 km/h 53% 0.0 mm FEW
15:19 14.8 °C 5.3 °C 1024.6 hPa SSW 8.4 km/h 9.3 km/h 53% 0.0 mm FEW
15:25 14.9 °C 5.4 °C 1024.6 hPa SSW 8.0 km/h 12.9 km/h 53% 0.0 mm FEW
15:30 15.0 °C 5.5 °C 1024.6 hPa SSW 8.0 km/h 16.1 km/h 53% 0.0 mm FEW
15:35 15.1 °C 5.6 °C 1024.4 hPa South 8.4 km/h 13.0 km/h 53% 0.0 mm FEW
15:39 15.2 °C 5.7 °C 1024.4 hPa South 8.7 km/h 11.1 km/h 53% 0.0 mm FEW
15:45 15.2 °C 5.7 °C 1024.4 hPa South 8.7 km/h 7.4 km/h 53% 0.0 mm FEW
15:50 15.4 °C 5.6 °C 1024.4 hPa South 6.9 km/h 7.4 km/h 52% 0.0 mm CLR
15:55 15.5 °C 5.7 °C 1024.4 hPa SSW 6.9 km/h 11.1 km/h 52% 0.0 mm CLR
16:00 15.6 °C 5.8 °C 1024.4 hPa SSW 8.0 km/h 9.7 km/h 52% 0.0 mm CLR
16:05 15.7 °C 5.3 °C 1024.2 hPa SW 6.9 km/h 9.3 km/h 50% 0.0 mm CLR
16:10 15.7 °C 5.3 °C 1024.2 hPa SW 8.0 km/h 11.3 km/h 50% 0.0 mm CLR
16:15 15.7 °C 5.0 °C 1024.2 hPa SSW 6.9 km/h 11.1 km/h 49% 0.0 mm CLR
16:19 15.8 °C 4.8 °C 1024.0 hPa SSW 7.6 km/h 11.1 km/h 48% 0.0 mm CLR
16:25 15.8 °C 4.8 °C 1024.0 hPa SSW 7.6 km/h 14.8 km/h 48% 0.0 mm CLR
16:30 15.9 °C 4.9 °C 1024.0 hPa SSW 8.0 km/h 14.5 km/h 48% 0.0 mm CLR
16:35 16.0 °C 4.7 °C 1023.8 hPa SW 8.0 km/h 14.5 km/h 47% 0.0 mm CLR
16:40 16.0 °C 4.7 °C 1023.8 hPa SSW 8.0 km/h 12.9 km/h 47% 0.0 mm CLR
16:45 16.1 °C 4.4 °C 1023.8 hPa WSW 7.6 km/h 9.3 km/h 46% 0.0 mm CLR
16:50 16.1 °C 4.4 °C 1023.8 hPa South 6.9 km/h 11.1 km/h 46% 0.0 mm CLR
16:55 16.1 °C 4.4 °C 1023.8 hPa SW 8.0 km/h 11.3 km/h 46% 0.0 mm CLR
17:00 16.1 °C 4.4 °C 1023.8 hPa SW 8.0 km/h 11.3 km/h 46% 0.0 mm CLR
17:05 16.2 °C 4.2 °C 1023.7 hPa SW 8.0 km/h 9.7 km/h 45% 0.0 mm CLR
17:09 16.2 °C 4.2 °C 1023.7 hPa WSW 5.8 km/h 7.4 km/h 45% 0.0 mm CLR
17:15 16.2 °C 3.9 °C 1023.7 hPa WSW 4.8 km/h 8.0 km/h 44% 0.0 mm CLR
17:20 16.2 °C 3.9 °C 1023.7 hPa WSW 4.7 km/h 7.4 km/h 44% 0.0 mm CLR
17:25 16.2 °C 3.6 °C 1023.7 hPa WSW 4.7 km/h 9.3 km/h 43% 0.0 mm CLR
17:30 16.1 °C 3.8 °C 1023.7 hPa SW 4.8 km/h 9.7 km/h 44% 0.0 mm CLR
17:35 16.1 °C 3.8 °C 1023.6 hPa WSW 5.8 km/h 3.7 km/h 44% 0.0 mm CLR
17:40 16.2 °C 3.9 °C 1023.6 hPa WSW 2.9 km/h 3.7 km/h 44% 0.0 mm CLR
17:45 16.2 °C 3.6 °C 1023.6 hPa WSW 2.9 km/h   43% 0.0 mm CLR
17:50 16.2 °C 3.6 °C 1023.6 hPa WSW 2.3 km/h   43% 0.0 mm CLR
17:55 15.9 °C 5.5 °C 1023.6 hPa SE 2.3 km/h 7.4 km/h 50% 0.0 mm CLR
18:00 15.4 °C 5.6 °C 1023.6 hPa SE 3.2 km/h 8.0 km/h 52% 0.0 mm CLR
18:05 15.1 °C 6.1 °C 1023.4 hPa SE 3.9 km/h 9.3 km/h 55% 0.0 mm CLR
18:10 14.8 °C 5.8 °C 1023.4 hPa SE 4.8 km/h 8.0 km/h 55% 0.0 mm CLR
18:15 14.5 °C 5.8 °C 1023.4 hPa SSE 5.0 km/h 7.4 km/h 56% 0.0 mm CLR
18:20 14.3 °C 5.9 °C 1023.3 hPa SSE 5.0 km/h 9.3 km/h 57% 0.0 mm CLR
18:25 14.1 °C 5.9 °C 1023.3 hPa SSE 5.0 km/h 3.9 km/h 58% 0.0 mm CLR
18:30 14.0 °C 6.1 °C 1023.3 hPa SSE 3.9 km/h 4.7 km/h 59% 0.0 mm CLR
18:35 14.0 °C 6.3 °C 1023.4 hPa SSE 3.9 km/h 3.7 km/h 60% 0.0 mm CLR
18:40 13.9 °C 6.3 °C 1023.4 hPa SSE 2.9 km/h   60% 0.0 mm CLR
18:45 13.9 °C 6.3 °C 1023.4 hPa SSE 2.9 km/h 5.8 km/h 60% 0.0 mm CLR
18:50 13.8 °C 6.2 °C 1023.3 hPa SSE 2.3 km/h 7.4 km/h 60% 0.0 mm CLR
18:55 13.7 °C 6.1 °C 1023.3 hPa SSE 2.3 km/h 3.7 km/h 60% 0.0 mm CLR
19:00 13.6 °C 6.2 °C 1023.3 hPa SSE 3.2 km/h   61% 0.0 mm CLR
19:05 13.3 °C 5.9 °C 1023.3 hPa SSE 3.2 km/h   61% 0.0 mm CLR
19:10 13.0 °C 5.7 °C 1023.3 hPa Calm     61% 0.0 mm CLR
19:15 12.7 °C 5.4 °C 1023.3 hPa Calm     61% 0.0 mm CLR
19:20 12.5 °C 5.7 °C 1023.2 hPa Calm   3.7 km/h 63% 0.0 mm CLR
19:25 12.3 °C 5.2 °C 1023.2 hPa Calm   9.3 km/h 62% 0.0 mm CLR
19:30 12.4 °C 5.8 °C 1023.2 hPa SSW 3.2 km/h 11.3 km/h 64% 0.0 mm CLR
19:35 12.4 °C 6.0 °C 1023.2 hPa SSW 3.2 km/h 9.3 km/h 65% 0.0 mm CLR
19:40 12.3 °C 6.1 °C 1023.2 hPa SW 6.4 km/h 7.6 km/h 66% 0.0 mm CLR
19:45 12.3 °C 6.3 °C 1023.2 hPa SW 8.0 km/h 11.3 km/h 67% 0.0 mm CLR
19:50 12.2 °C 6.4 °C 1023.0 hPa SW 7.6 km/h 9.3 km/h 68% 0.0 mm CLR
19:55 12.1 °C 6.6 °C 1023.0 hPa SSW 7.6 km/h 9.3 km/h 69% 0.0 mm CLR
20:00 11.9 °C 6.6 °C 1023.0 hPa SW 8.0 km/h 14.5 km/h 70% 0.0 mm CLR
20:05 11.8 °C 6.7 °C 1023.0 hPa SW 6.9 km/h 11.1 km/h 71% 0.0 mm CLR
20:10 11.7 °C 6.6 °C 1023.0 hPa SSW 8.0 km/h 12.9 km/h 71% 0.0 mm CLR
20:15 11.6 °C 6.7 °C 1023.0 hPa SSW 8.4 km/h 11.1 km/h 72% 0.0 mm CLR
20:20 11.4 °C 6.6 °C 1023.1 hPa SSW 7.6 km/h 11.1 km/h 72% 0.0 mm CLR
20:25 11.3 °C 6.6 °C 1023.1 hPa SSW 8.0 km/h 11.3 km/h 73% 0.0 mm CLR
20:30 11.2 °C 6.6 °C 1023.1 hPa SSW 8.0 km/h 8.0 km/h 73% 0.0 mm CLR
20:35 11.1 °C 6.6 °C 1023.1 hPa SSW 6.4 km/h 7.4 km/h 74% 0.0 mm CLR
20:40 11.1 °C 6.6 °C 1023.1 hPa SSW 4.8 km/h 8.0 km/h 74% 0.0 mm CLR
20:45 10.9 °C 6.4 °C 1023.1 hPa SSE 5.0 km/h 7.6 km/h 74% 0.0 mm CLR
20:50 10.8 °C 6.6 °C 1023.0 hPa South 4.8 km/h 9.7 km/h 75% 0.0 mm CLR
20:55 10.7 °C 6.4 °C 1023.0 hPa South 5.0 km/h 9.3 km/h 75% 0.0 mm CLR
21:00 10.6 °C 6.6 °C 1023.0 hPa South 8.0 km/h 11.3 km/h 76% 0.0 mm CLR
21:05 10.6 °C 6.6 °C 1022.9 hPa South 6.4 km/h 7.4 km/h 76% 0.0 mm CLR
21:10 10.5 °C 6.6 °C 1022.9 hPa SSW 6.4 km/h 9.3 km/h 77% 0.0 mm CLR
21:15 10.5 °C 6.6 °C 1022.9 hPa South 6.4 km/h 7.6 km/h 77% 0.0 mm CLR
21:20 10.5 °C 6.6 °C 1022.9 hPa SSW 8.0 km/h 9.7 km/h 77% 0.0 mm CLR
21:25 10.4 °C 6.3 °C 1022.9 hPa SSW 6.4 km/h 9.3 km/h 76% 0.0 mm CLR
21:30 10.4 °C 6.3 °C 1022.9 hPa South 5.0 km/h 11.1 km/h 76% 0.0 mm CLR
21:35 10.4 °C 6.3 °C 1022.8 hPa South 5.0 km/h 11.1 km/h 76% 0.0 mm CLR
21:40 10.6 °C 6.6 °C 1022.8 hPa SW 8.0 km/h 16.1 km/h 76% 0.0 mm CLR
21:45 10.7 °C 6.4 °C 1022.8 hPa SSW 6.4 km/h 11.1 km/h 75% 0.0 mm CLR
21:50 10.7 °C 6.3 °C 1022.7 hPa SSW 8.0 km/h 11.3 km/h 74% 0.0 mm CLR
21:55 10.6 °C 6.2 °C 1022.7 hPa SW 8.4 km/h 5.6 km/h 74% 0.0 mm CLR
22:00 10.4 °C 6.2 °C 1022.7 hPa SW 4.8 km/h 9.7 km/h 75% 0.0 mm CLR
22:05 10.3 °C 6.1 °C 1022.6 hPa SW 4.8 km/h 9.7 km/h 75% 0.0 mm CLR
22:10 10.3 °C 6.1 °C 1022.6 hPa SSW 4.8 km/h 8.0 km/h 75% 0.0 mm CLR
22:15 10.1 °C 5.9 °C 1022.6 hPa South 5.0 km/h 7.4 km/h 75% 0.0 mm CLR
22:20 9.9 °C 5.9 °C 1022.4 hPa South 3.2 km/h 9.7 km/h 76% 0.0 mm CLR
22:25 9.8 °C 5.9 °C 1022.4 hPa South 4.7 km/h 9.3 km/h 77% 0.0 mm CLR
22:30 9.8 °C 5.9 °C 1022.4 hPa South 5.0 km/h 9.3 km/h 77% 0.0 mm CLR
22:35 9.7 °C 6.1 °C 1022.3 hPa South 5.0 km/h 7.4 km/h 78% 0.0 mm CLR
22:40 9.7 °C 6.1 °C 1022.3 hPa South 4.7 km/h 9.3 km/h 78% 0.0 mm CLR
22:45 9.7 °C 6.1 °C 1022.3 hPa South 3.2 km/h 11.3 km/h 78% 0.0 mm CLR
22:50 9.6 °C 5.9 °C 1021.9 hPa South 6.9 km/h 11.1 km/h 78% 0.0 mm CLR
22:55 9.4 °C 5.8 °C 1021.9 hPa SSE 6.9 km/h 9.3 km/h 78% 0.0 mm CLR
23:00 9.1 °C 5.4 °C 1021.9 hPa South 8.0 km/h 11.3 km/h 78% 0.0 mm CLR
23:05 8.7 °C 5.3 °C 1021.9 hPa South 7.6 km/h 10.0 km/h 79% 0.0 mm CLR
23:10 8.6 °C 5.2 °C 1021.9 hPa South 8.4 km/h 11.1 km/h 79% 0.0 mm CLR
23:15 8.6 °C 5.2 °C 1021.9 hPa South 8.0 km/h 11.3 km/h 79% 0.0 mm CLR
23:20 8.6 °C 5.2 °C 1021.9 hPa South 6.4 km/h 9.3 km/h 79% 0.0 mm CLR
23:25 8.7 °C 5.4 °C 1021.9 hPa SSW 6.4 km/h 9.3 km/h 80% 0.0 mm CLR
23:30 8.8 °C 5.3 °C 1021.9 hPa South 6.9 km/h 11.1 km/h 79% 0.0 mm CLR
23:35 8.7 °C 5.3 °C 1021.8 hPa SSW 8.0 km/h 14.5 km/h 79% 0.0 mm CLR
23:40 8.8 °C 5.6 °C 1021.8 hPa SSW 7.6 km/h 13.0 km/h 80% 0.0 mm CLR
23:45 8.9 °C 5.4 °C 1021.8 hPa SW 7.6 km/h 9.3 km/h 79% 0.0 mm CLR
23:50 8.9 °C 5.4 °C 1021.6 hPa SSW 8.0 km/h 14.5 km/h 79% 0.0 mm CLR
23:55 9.1 °C 5.7 °C 1021.6 hPa SSW 7.6 km/h 18.5 km/h 79% 0.0 mm CLR
Murcia-Puente Tocinos, España
Compliments of Weather Underground - 2.75 mb

La estación de MeteoMurcia.com, publica sus datos en los siguientes proyectos:

Weather Underground PWS IMURCIAP2 Meteoclimatic www.awekas.at

W3Counter
Web Analytics